This is the latest recevied weather packets stored in our database for station/object KD0KHX-10. If no packets are shown the sender has not sent any weather packets the latest 10 day(s).
| Time | Temp. | Humidity | Pressure | Rain* | Wind** | Luminosity | Snow |
|---|---|---|---|---|---|---|---|
| 1777720203 | -0.56° C | 78% | 1015.9 hPa | 0 mm | - | - | - |
| 1777719903 | -0.56° C | 79% | 1015.9 hPa | 0 mm | - | - | - |
| 1777719603 | -0.56° C | 80% | 1015.9 hPa | 0 mm | - | - | - |
| 1777719437 | -0.56° C | 80% | 1015.9 hPa | 0 mm | - | - | - |
| 1777719138 | -0.56° C | 80% | 1015.9 hPa | 0 mm | - | - | - |
| 1777718703 | -0.56° C | 80% | 1015.9 hPa | 0 mm | - | - | - |
| 1777718673 | -0.56° C | 80% | 1016 hPa | 0 mm | - | - | - |
| 1777718237 | 0° C | 79% | 1016 hPa | 0 mm | - | - | - |
| 1777717938 | 0° C | 80% | 1015.9 hPa | 0 mm | - | - | - |
| 1777717503 | 0° C | 80% | 1015.9 hPa | 0 mm | - | - | - |
| 1777717203 | -0.56° C | 80% | 1015.8 hPa | 0 mm | - | - | - |
| 1777717036 | -1.11° C | 81% | 1015.9 hPa | 0 mm | - | - | - |
| 1777716737 | 0° C | 81% | 1015.8 hPa | 0 mm | - | - | - |
| 1777716303 | 0.56° C | 80% | 1015.7 hPa | 0 mm | - | - | - |
| 1777716003 | 0° C | 80% | 1015.6 hPa | 0 mm | - | - | - |
| 1777715703 | 0° C | 80% | 1015.7 hPa | 0 mm | - | - | - |
| 1777715672 | 0° C | 80% | 1015.7 hPa | 0 mm | - | - | - |
| 1777714803 | 1.67° C | 80% | 1015.5 hPa | 0 mm | - | - | - |
| 1777714773 | 1.67° C | 80% | 1015.5 hPa | 0 mm | - | - | - |
| 1777714203 | 1.67° C | 80% | 1015.5 hPa | 0 mm | - | - | - |
| 1777713903 | 1.67° C | 80% | 1015.3 hPa | 0 mm | - | - | - |
| 1777713603 | 1.67° C | 80% | 1015.5 hPa | 0 mm | - | - | - |
| 1777713303 | 1.67° C | 80% | 1015.4 hPa | 0 mm | - | - | - |
| 1777713003 | 1.67° C | 80% | 1015.4 hPa | 0 mm | - | - | - |
| 1777712703 | 2.22° C | 80% | 1015.4 hPa | 0 mm | - | - | - |
* Rain latest hour (hover to see other rain measurements)
** Current wind speed in m/s (hover to see current wind gust speed)